[[{"header":{"parameterUnit":"m.s-1","parameterCategory":1,"la1":30.2991,"la2":30.254,"lo1":-89.0895,"lo2":-89.0444,"dy":0.0017,"dx":0.0017,"nx":28,"ny":28,"refTime":"2024-07-17T21:00:00:Z","depth":0,"parameterNumber":2,"parameterNumberName":"U-component_of_WINDS"},"data":[0,0,0,0,0,0,0,0,0,0,0,0,0,0,0,0,0,0,0,0,0,0,0,0,0,0,0,0,0,0,0,0,0,0,0,0,0,0,0,0,0,0,0,0,0,0,0,0,0,0,0,0,0,0,0,0,0,0,0.959,0.9591,0,0.9634,0.9635,0.9635,0.9651,0.965,0.965,0.965,0.9695,0.9696,0.9698,0,0,0,0,0,0,0,0,0,0,0,0,0,0.9518,0.952,0.959,0.9591,0.9591,0.9634,0.9635,0.9635,0.9651,0.965,0.965,0.965,0.9694,0.9696,0.9698,0,0,0,0,0,0,0,0,0,0,0,0,0,0.9555,0.952,0.959,0.9604,0.9606,0.9634,0.9635,0.9635,0.9651,0.965,0.965,0.965,0.9694,0.9696,0.9698,0.9715,0,0,0.9704,0.9705,0,0,0,0,0,0,0,0,0.9553,0.9557,0.9601,0.9603,0.9605,0.9637,0.9626,0.9662,0.9651,0.9634,0.965,0.965,0.9676,0.9679,0.9688,0.9718,0.9719,0.9704,0.9706,0.9706,0.9707,0,0,0,0,0,0,0,0.955,0.9555,0.9608,0.9602,0.9604,0.9608,0.9613,0.9633,0.9655,0.9635,0.9636,0.9641,0.9677,0.9686,0.9689,0.972,0.9704,0.9706,0.9707,0.9708,0.9765,0.9765,0,0,0,0,0,0,0.9545,0.9553,0.9606,0.9609,0.9578,0.9609,0.9615,0.9627,0.9655,0.9659,0.9641,0.9642,0.9683,0.9687,0.9691,0.9712,0.9706,0.9708,0.9709,0.9765,0.9765,0.9765,0,0,0,0,0,0,0.9544,0.955,0.9604,0.9581,0.9589,0.9611,0.9624,0.9628,0.9637,0.966,0.9664,0.9647,0.9683,0.9688,0.9709,0.9714,0.9709,0.9711,0.9764,0.9765,0.9765,0.9756,0,0,0,0,0,0,0.9542,0.9549,0.9556,0.9581,0.959,0.9622,0.9624,0.9629,0.9641,0.9642,0.9666,0.967,0.9683,0.9706,0.9711,0.9717,0.9713,0.9764,0.9765,0.9765,0.9756,0.9756,0.9756,0,0,0,0,0,0.9539,0.9552,0.9557,0.9563,0.9599,0.9622,0.9627,0.9641,0.9641,0.9648,0.9663,0.9669,0.9713,0.9708,0.9714,0.972,0.9764,0.9764,0.9765,0.9756,0.9756,0.9756,0,0,0,0,0,0,0.9528,0.9556,0.9561,0.9583,0.96,0.9625,0.9634,0.9641,0.9659,0.9659,0.9676,0.9681,0.9701,0.9713,0.9707,0.9738,0.9739,0.9741,0.973,0.973,0.973,0.9727,0.9714,0,0,0,0,0,0.9527,0.9544,0.9568,0.9585,0.9593,0.9612,0.9623,0.9632,0.9651,0.9658,0.9674,0.9692,0.9709,0.972,0.9738,0.9758,0.9763,0.9765,0.9766,0.9766,0.9767,0.9778,0.9779,0.9768,0.9768,0.9768,0,0,0.9528,0.9545,0.9555,0.9583,0.9597,0.9614,0.9618,0.9636,0.9648,0.9661,0.9681,0.9694,0.9714,0.9734,0.9744,0.9745,0.9771,0.9766,0.9766,0.9768,0.9778,0.9779,0.978,0.9768,0.9768,0.9768,0,0,0.9536,0.9552,0.9567,0.9581,0.9603,0.9615,0.9619,0.9642,0.9651,0.9672,0.9681,0.9696,0.9726,0.974,0.9751,0.9764,0.977,0.9769,0.977,0.978,0.9781,0.9781,0.9785,0.9787,0.977,0.977,0.977,0,0.9534,0.9559,0.9574,0.9591,0.9602,0.9614,0.963,0.9643,0.9669,0.9676,0.9677,0.9714,0.9729,0.9752,0.9755,0.9764,0.9768,0.9766,0.9779,0.978,0.9781,0.9785,0.9787,0.977,0.977,0.977,0.977,0,0.9554,0.9572,0.9581,0.9606,0.9619,0.9635,0.9651,0.9663,0.9671,0.9683,0.9704,0.9722,0.9742,0.9749,0.9757,0.9773,0.9773,0.9776,0.9777,0.9782,0.9786,0.9787,0.9769,0.9769,0.977,0.977,0,0,0.9558,0.9589,0.9593,0.9604,0.9628,0.9641,0.9657,0.9677,0.9686,0.9704,0.9717,0.9742,0.9745,0.9757,0.9767,0.9776,0.9784,0.9778,0.9779,0.9778,0.9802,0.9799,0.9801,0.9788,0.9789,0.9789,0.98,0,0.9569,0.9598,0.9611,0.9634,0.965,0.9661,0.9675,0.9691,0.9703,0.9717,0.973,0.9747,0.975,0.9758,0.9767,0.9781,0.9789,0.978,0.9801,0.9801,0.9795,0.9803,0.98,0.9809,0.9802,0.9802,0.9802,0,0.9586,0.9603,0.9627,0.9649,0.9656,0.9668,0.9687,0.9701,0.9719,0.9727,0.974,0.975,0.9767,0.9766,0.9789,0.9783,0.9792,0.98,0.9801,0.9803,0.9802,0.9805,0.9813,0.9814,0.9805,0.9805,0.9805,0,0.9585,0.9614,0.9632,0.9641,0.9667,0.9675,0.9686,0.9704,0.9715,0.9731,0.9738,0.9757,0.9767,0.9781,0.9795,0.9793,0.9816,0.9817,0.9823,0.9822,0.9827,0.9827,0.9836,0.9833,0.9833,0.9833,0.9833,0,0.9596,0.961,0.9632,0.9643,0.9659,0.9674,0.9689,0.9701,0.9717,0.973,0.9741,0.9753,0.9771,0.9786,0.9797,0.9814,0.9818,0.9825,0.9827,0.9824,0.9823,0.983,0.9829,0.9834,0.9834,0.9834,0.9834,0,0.9597,0.9612,0.9633,0.9655,0.9661,0.9672,0.9691,0.9702,0.9713,0.973,0.9735,0.9754,0.9771,0.9786,0.9809,0.9817,0.9834,0.9838,0.9828,0.9829,0.9834,0.9833,0.9848,0.9851,0.9846,0.9846,0.9846,0,0.9603,0.9614,0.9638,0.9647,0.9658,0.9673,0.9684,0.9699,0.971,0.9731,0.974,0.9758,0.9773,0.98,0.9816,0.9833,0.9837,0.9841,0.984,0.9836,0.9837,0.9836,0.9837,0.9841,0.9841,0.9841,0.9841,0,0.9612,0.9618,0.9634,0.9652,0.9664,0.9679,0.9694,0.9702,0.9719,0.9731,0.9749,0.9761,0.9784,0.9802,0.9821,0.9832,0.9839,0.9841,0.9844,0.984,0.9833,0.9836,0.9827,0.9841,0.9841,0.9841,0.9841,0.9841,0.9615,0.9625,0.9643,0.9659,0.9672,0.9686,0.9697,0.971,0.9725,0.9745,0.9753,0.9771,0.9788,0.9815,0.9826,0.984,0.9841,0.9845,0.9845,0.9846,0.9845,0.9831,0.9844,0.9844,0.9844,0.9844,0.9844,0,0.9623,0.9635,0.965,0.9671,0.9684,0.9689,0.9706,0.9717,0.9732,0.9748,0.9762,0.9782,0.9799,0.9816,0.9834,0.9842,0.9846,0.9846,0.9846,0.9848,0.9843,0.9839,0.9843,0.9843,0.9843,0.9843,0.9843,0.9843,0.9629,0.9647,0.9655,0.9678,0.969,0.9708,0.9717,0.9729,0.9741,0.9763,0.9777,0.9788,0.9804,0.9823,0.9839,0.9843,0.9849,0.9848,0.9854,0.9849,0.9848,0.9848,0.9845,0.9849,0.985,0.9857,0.9857,0.9858]},{"header":{"parameterUnit":"m.s-1","parameterCategory":1,"la1":30.2991,"la2":30.254,"lo1":-89.0895,"lo2":-89.0444,"dy":0.0017,"dx":0.0017,"nx":28,"ny":28,"refTime":"2024-07-17T21:00:00:Z","depth":0,"parameterNumber":3,"parameterNumberName":"V-component_of_WINDS"},"data":[0,0,0,0,0,0,0,0,0,0,0,0,0,0,0,0,0,0,0,0,0,0,0,0,0,0,0,0,0,0,0,0,0,0,0,0,0,0,0,0,0,0,0,0,0,0,0,0,0,0,0,0,0,0,0,0,0,0,1.9543,1.9543,0,1.9599,1.9599,1.96,1.9589,1.9588,1.9587,1.9586,1.9643,1.9645,1.9648,0,0,0,0,0,0,0,0,0,0,0,0,0,1.9425,1.9427,1.9543,1.9543,1.9544,1.9599,1.9599,1.96,1.9589,1.9588,1.9586,1.9585,1.9642,1.9645,1.9648,0,0,0,0,0,0,0,0,0,0,0,0,0,1.9478,1.9428,1.9543,1.9545,1.9546,1.9599,1.96,1.96,1.9589,1.9588,1.9586,1.9585,1.9641,1.9645,1.9648,1.9702,0,0,1.966,1.9661,0,0,0,0,0,0,0,0,1.9475,1.9482,1.9544,1.9545,1.9546,1.9585,1.9579,1.9635,1.959,1.9573,1.9586,1.9584,1.9625,1.963,1.9644,1.9705,1.9707,1.966,1.9662,1.9664,1.9665,0,0,0,0,0,0,0,1.9471,1.948,1.9565,1.9545,1.9546,1.9543,1.9549,1.9589,1.9607,1.9574,1.9573,1.958,1.9625,1.964,1.9645,1.9708,1.966,1.9663,1.9665,1.9667,1.9814,1.9816,0,0,0,0,0,0,1.9467,1.9477,1.9563,1.9567,1.9506,1.9546,1.9553,1.9574,1.9606,1.961,1.9581,1.9579,1.9635,1.9641,1.9647,1.9711,1.9664,1.9667,1.9669,1.9813,1.9815,1.9817,0,0,0,0,0,0,1.9464,1.9475,1.9561,1.9522,1.9532,1.955,1.9574,1.9576,1.9591,1.9612,1.9615,1.9594,1.9634,1.9642,1.9688,1.9713,1.9669,1.9672,1.9811,1.9813,1.9816,1.984,0,0,0,0,0,0,1.9461,1.9474,1.9495,1.9522,1.9534,1.9601,1.9576,1.9578,1.9598,1.9595,1.9624,1.9627,1.9633,1.9683,1.9692,1.9717,1.9675,1.9809,1.9812,1.9815,1.9837,1.9843,1.9848,0,0,0,0,0,1.9457,1.9499,1.9496,1.9506,1.9561,1.9603,1.961,1.9616,1.96,1.962,1.9634,1.9626,1.9709,1.9687,1.9698,1.9724,1.9807,1.9811,1.9815,1.9834,1.9841,1.9848,0,0,0,0,0,0,1.9475,1.9503,1.9499,1.9552,1.9575,1.9601,1.9627,1.9623,1.9651,1.9648,1.9654,1.9661,1.9708,1.9721,1.9697,1.9777,1.9755,1.9761,1.9767,1.9774,1.9779,1.9775,1.9678,0,0,0,0,0,1.9485,1.9517,1.954,1.9584,1.9596,1.961,1.9628,1.9631,1.9655,1.9664,1.9681,1.9704,1.9735,1.9755,1.9785,1.9839,1.9844,1.9862,1.9868,1.9872,1.9877,1.9905,1.9913,1.9829,1.9829,1.9829,0,0,1.9506,1.9525,1.9545,1.9588,1.9606,1.9639,1.9618,1.9653,1.9677,1.967,1.9714,1.9727,1.9753,1.9803,1.9826,1.9816,1.9901,1.9877,1.988,1.9883,1.991,1.9917,1.9924,1.9832,1.9831,1.9831,0,0,1.9561,1.9579,1.9618,1.9636,1.9663,1.9672,1.9681,1.9708,1.9716,1.9761,1.9755,1.9784,1.9837,1.9856,1.9872,1.9933,1.9927,1.9943,1.9971,1.9998,2.0005,2.0011,2.0031,2.0039,1.9948,1.9948,1.9948,0,1.9584,1.9632,1.9638,1.9673,1.9692,1.9686,1.9725,1.9742,1.9778,1.9791,1.9779,1.9845,1.9863,1.9916,1.9931,1.9945,1.9955,1.9939,2.0004,2.001,2.0015,2.0035,2.0043,1.9949,1.9949,1.9949,1.9949,0,1.9658,1.9692,1.972,1.9754,1.9776,1.9813,1.9823,1.9844,1.9845,1.9855,1.99,1.992,1.9954,1.9967,1.9968,2.002,2.0013,2.0002,1.998,2.0025,2.0043,2.0051,1.9952,1.9951,1.9951,1.995,0,0,1.9726,1.9762,1.9772,1.9787,1.9816,1.9842,1.9879,1.9911,1.9929,1.9954,1.9983,2.0029,2.0019,2.0037,2.004,2.0064,2.011,2.0051,2.0051,2.006,2.0167,2.0174,2.0183,2.0106,2.0108,2.0109,2.0165,0,1.9782,1.9846,1.9852,1.9909,1.9939,1.9934,1.9966,1.9987,1.9997,2.0024,2.0035,2.0067,2.0052,2.0063,2.0087,2.0099,2.0131,2.0095,2.0133,2.0135,2.0126,2.0193,2.02,2.0252,2.0172,2.0173,2.0174,0,1.9857,1.9883,1.9943,1.9967,1.998,2.0008,2.0038,2.0064,2.0088,2.0094,2.0114,2.0114,2.015,2.0127,2.0177,2.0153,2.0169,2.0177,2.0179,2.0182,2.0156,2.0196,2.0269,2.0276,2.0186,2.0185,2.0184,0,1.9898,1.9949,1.9991,2.0004,2.0034,2.0053,2.0067,2.0089,2.0108,2.0133,2.0145,2.0175,2.0191,2.0214,2.0222,2.0205,2.0271,2.0249,2.0276,2.0276,2.0289,2.0288,2.0364,2.0302,2.0301,2.0301,2.0301,0,1.996,1.9997,2.001,2.0036,2.0076,2.0082,2.0122,2.0134,2.0154,2.0181,2.0179,2.0205,2.0214,2.0241,2.0247,2.0287,2.0295,2.0299,2.03,2.0299,2.0298,2.0309,2.0305,2.0303,2.0303,2.0302,2.0302,0,2.0013,2.0024,2.0069,2.0093,2.01,2.0128,2.0149,2.0173,2.0183,2.0218,2.0226,2.0241,2.0273,2.0283,2.0322,2.0326,2.0372,2.037,2.0363,2.0363,2.0389,2.0386,2.0473,2.0484,2.0416,2.0416,2.0417,0,2.0051,2.0079,2.0106,2.0124,2.0138,2.0168,2.0186,2.0193,2.0213,2.0241,2.0262,2.0294,2.0319,2.0371,2.0385,2.0414,2.0412,2.0441,2.0417,2.0414,2.0411,2.0409,2.0411,2.0445,2.0446,2.0446,2.0447,0,2.0118,2.0121,2.0148,2.0177,2.02,2.0223,2.0245,2.026,2.027,2.0292,2.0325,2.0344,2.0383,2.0414,2.0444,2.0457,2.0453,2.0454,2.0462,2.046,2.0455,2.0457,2.0375,2.0452,2.0452,2.0451,2.0451,2.0451,2.0163,2.0187,2.021,2.024,2.0257,2.0278,2.0301,2.0314,2.0341,2.0373,2.0375,2.041,2.0432,2.0472,2.0486,2.0513,2.0505,2.0516,2.0519,2.0521,2.0523,2.0451,2.0519,2.0519,2.0519,2.0519,2.0519,0,2.0228,2.0242,2.027,2.0301,2.0324,2.0319,2.0343,2.0363,2.0393,2.0414,2.0439,2.0476,2.0506,2.0522,2.0552,2.057,2.0569,2.0577,2.0575,2.0578,2.0529,2.0519,2.0578,2.0578,2.0578,2.0578,2.0578,2.0578,2.0265,2.0304,2.0311,2.0359,2.0372,2.0406,2.042,2.0439,2.0455,2.0496,2.0521,2.0532,2.055,2.0581,2.0608,2.0612,2.0623,2.0632,2.0635,2.0588,2.0582,2.0576,2.0567,2.0634,2.0635,2.0682,2.0682,2.0682]}]]